Home   Weather   Pickering   Past weeks

Flag for Canada Past Weather in Pickering, Ontario, Canada — Yesterday and Last 2 Weeks

Now
72 °F

Passing clouds.


Feels Like: 75 °F
Forecast: 62 / 83 °F
Wind: 2 mph from North

Location: Toronto Buttonville

Current Time: Aug 21, 2017 at 1:01:02 am

Latest Report: Aug 21, 2017 at 12:00 am


Visibility: 15 mi

Pressure: 30.09 "Hg

Humidity: 69%

Dew Point: 61 °F

Location of PickeringLocation

Past Weather in Pickering — Graph

°F

Pickering Temperature Yesterday

Maximum temperature yesterday: 82 °F (at 5:00 pm)
Minimum temperature yesterday: 57 °F (at 6:00 am)
Average temperature yesterday: 71 °F

High & Low Weather Summary for the Past Weeks

 TemperatureHumidityPressure
High82 °F (Aug 9, 3:00 pm)100% (Aug 12, 5:19 am)30.19 "Hg (Aug 12, 5:19 am)
Low55 °F (Aug 6, 2:00 am)39% (Aug 6, 3:00 pm)29.68 "Hg (Aug 18, 1:00 pm)
Average68 °F75%29.96 "Hg
* Reported Aug 5 11:00 pm — Aug 20 11:00 pm, Pickering. Weather by CustomWeather, © 2017

Note: Actual official high and low records may vary slightly from our data, if they occured in-between our weather recording intervals... More about our weather records

Advertising

Pickering Weather History for the Previous 24 Hours

Scroll right to see more
 ConditionsComfort  
Time TempWeatherWind HumidityBarometerVisibility
11:00 pm
Sun, Aug 20
70 °FPassing clouds.5 mph73%30.09 "Hg15 mi
10:00 pm73 °FPassing clouds.2 mph61%30.09 "Hg15 mi
9:00 pm75 °FPassing clouds.5 mph57%30.07 "Hg15 mi
8:00 pm77 °FScattered clouds.5 mph51%30.05 "Hg15 mi
7:00 pm79 °FScattered clouds.8 mph51%30.04 "Hg15 mi
6:00 pm81 °FPassing clouds.10 mph48%30.03 "Hg15 mi
5:00 pm82 °FScattered clouds.7 mph48%30.03 "Hg15 mi
4:00 pm81 °FPartly sunny.6 mph54%30.04 "Hg15 mi
3:00 pm81 °FPartly sunny.9 mph54%30.05 "Hg15 mi
2:00 pm81 °FPartly sunny.8 mph54%30.06 "Hg15 mi
1:00 pm79 °FPartly sunny.5 mph58%30.05 "Hg15 mi
12:00 pm79 °FPassing clouds.6 mph58%30.06 "Hg15 mi
11:00 am75 °FPassing clouds.9 mph65%30.07 "Hg15 mi
10:00 am72 °FSunny.3 mph73%30.05 "Hg15 mi
9:00 am68 °FSunny.5 mph78%30.04 "Hg15 mi
8:00 am63 °FSunny.No wind88%30.04 "Hg15 mi
7:00 am59 °FPassing clouds.No wind88%30.03 "Hg15 mi
6:00 am57 °FPassing clouds.No wind94%30.01 "Hg15 mi
5:00 am59 °FPassing clouds.No wind88%30.00 "Hg15 mi
4:00 am59 °FPartly cloudy.No wind88%30.00 "Hg15 mi
3:00 am61 °FPassing clouds.No wind83%29.98 "Hg15 mi
2:00 am61 °FPassing clouds.2 mph83%29.97 "Hg15 mi
1:00 am61 °FPassing clouds.7 mph88%29.97 "Hg15 mi
Weather by CustomWeather, © 2017

See weather overviewHow to use our weather pages